Weather History for KVLL - November, 2012

Change the Weather History Date:

Monday, November 5, 2012

  Actual Average (KDET) Record (KDET)
Temperature  
Mean Temperature 36 °F -  
Max Temperature 41 °F 50 °F 72 °F (1975)
Min Temperature 32 °F 38 °F 18 °F (1951)
Degree Days  
Heating Degree Days 28    
Moisture  
Dew Point 26 °F    
Average Humidity 64    
Maximum Humidity 75    
Minimum Humidity 47    
Precipitation  
Precipitation 0.00 in - - ()
Sea Level Pressure  
Sea Level Pressure 30.20 in    
Wind  
Wind Speed 4 mph (North)    
Max Wind Speed 9 mph    
Max Gust Speed -    
Visibility 10 miles    
Events      
Averages and records for this station are not official NWS values.
T = Trace of Precipitation, MM = Missing Value Source: NWS Daily Summary

Daily Weather History Graph

Daily Weather History Graph

Search for Another Location

Airport or City:

Trip Planner

Search our weather history database for the weather conditions in past years. The results will help you decide how hot, cold, wet, or windy it might be!

Date:

Astronomy

Nov. 05, 2012 Rise Set
Actual Time 7:11 AM EST 5:20 PM EST
Civil Twilight 6:42 AM EST 5:49 PM EST
Nautical Twilight 6:08 AM EST 6:23 PM EST
Astronomical Twilight 5:35 AM EST 6:56 PM EST
Moon 10:56 PM EST (11/5) 12:31 PM EST (11/5)
Length of Visible Light 11h 07m
Length of Day
10h 08m
Waning Gibbous, 63% of the Moon is Illuminated
Nov 5
Waning Gibbous
Nov 6
Last Quarter
Nov 13
New
Nov 20
First Quarter
Nov 28
Full

Hourly Weather History & Observations

Time (EST) Temp. Windchill Dew Point Humidity Pressure Visibility Wind Dir Wind Speed Gust Speed Precip Events Conditions
12:14 AM 32.5 °F 28.1 °F 25.5 °F 75% 30.19 in 10.0 mi NW 4.6 mph - N/A   Overcast
12:35 AM 33.1 °F 27.7 °F 25.7 °F 74% 30.19 in 10.0 mi NW 5.8 mph - N/A   Overcast
12:54 AM 33.3 °F 27.9 °F 25.7 °F 74% 30.19 in 10.0 mi NNW 5.8 mph - N/A   Overcast
1:15 AM 34.2 °F 26.8 °F 26.2 °F 73% 30.19 in 10.0 mi North 9.2 mph - N/A   Overcast
1:35 AM 34.3 °F 30.2 °F 26.2 °F 72% 30.19 in 10.0 mi NNE 4.6 mph - N/A   Overcast
1:54 AM 34.9 °F 30.8 °F 26.1 °F 70% 30.19 in 10.0 mi NNE 4.6 mph - N/A   Overcast
2:15 AM 35.2 °F 31.2 °F 25.7 °F 68% 30.19 in 10.0 mi North 4.6 mph - N/A   Overcast
2:34 AM 35.8 °F 31.9 °F 25.5 °F 66% 30.19 in 10.0 mi North 4.6 mph - N/A   Overcast
2:54 AM 35.6 °F 32.8 °F 25.5 °F 67% 30.19 in 10.0 mi NNW 3.5 mph - N/A   Overcast
3:15 AM 36.0 °F 33.3 °F 25.5 °F 66% 30.20 in 10.0 mi WNW 3.5 mph - N/A   Overcast
3:34 AM 35.6 °F - 25.7 °F 67% 30.20 in 10.0 mi Calm Calm - N/A   Overcast
3:55 AM 36.0 °F 33.3 °F 25.7 °F 66% 30.20 in 10.0 mi NW 3.5 mph - N/A   Overcast
4:14 AM 36.0 °F 33.3 °F 25.9 °F 67% 30.20 in 10.0 mi NW 3.5 mph - N/A   Overcast
4:35 AM 36.1 °F 31.4 °F 25.7 °F 66% 30.20 in 10.0 mi North 5.8 mph - N/A   Overcast
4:55 AM 36.1 °F 33.5 °F 26.2 °F 67% 30.20 in 10.0 mi North 3.5 mph - N/A   Overcast
5:14 AM 36.0 °F 33.3 °F 26.6 °F 69% 30.20 in 10.0 mi North 3.5 mph - N/A   Overcast
5:35 AM 36.0 °F 33.3 °F 26.4 °F 68% 30.20 in 10.0 mi North 3.5 mph - N/A   Overcast
5:54 AM 36.1 °F - 26.6 °F 68% 30.20 in 10.0 mi Calm Calm - N/A   Overcast
6:14 AM 36.5 °F 32.7 °F 26.2 °F 66% 30.20 in 10.0 mi North 4.6 mph - N/A   Overcast
6:35 AM 35.8 °F - 26.4 °F 69% 30.21 in 10.0 mi Calm Calm - N/A   Overcast
6:54 AM 35.6 °F 31.7 °F 26.4 °F 69% 30.22 in 10.0 mi NW 4.6 mph - N/A   Overcast
7:15 AM 35.2 °F 30.3 °F 27.0 °F 72% 30.22 in 10.0 mi NW 5.8 mph - N/A   Overcast
7:34 AM 35.2 °F 31.2 °F 27.1 °F 72% 30.22 in 10.0 mi NNW 4.6 mph - N/A   Overcast
7:54 AM 35.1 °F 31.0 °F 27.3 °F 73% 30.22 in 10.0 mi NW 4.6 mph - N/A   Overcast
8:15 AM 35.2 °F 32.4 °F 27.1 °F 72% 30.22 in 10.0 mi NW 3.5 mph - N/A   Mostly Cloudy
8:34 AM 35.8 °F 30.9 °F 26.4 °F 69% 30.22 in 10.0 mi NW 5.8 mph - N/A   Clear
8:55 AM 36.5 °F 31.0 °F 25.5 °F 64% 30.22 in 10.0 mi NNW 6.9 mph - N/A   Clear
9:15 AM 37.8 °F 32.5 °F 24.1 °F 58% 30.22 in 10.0 mi North 6.9 mph - N/A   Scattered Clouds
9:34 AM 38.3 °F 33.2 °F 23.7 °F 56% 30.22 in 10.0 mi NW 6.9 mph - N/A   Mostly Cloudy
9:55 AM 38.5 °F 33.4 °F 23.7 °F 55% 30.23 in 10.0 mi NW 6.9 mph - N/A   Overcast
10:14 AM 39.2 °F - 23.7 °F 54% 30.23 in 10.0 mi Calm Calm - N/A   Overcast
10:35 AM 39.6 °F 37.4 °F 23.7 °F 53% 30.23 in 10.0 mi NNE 3.5 mph - N/A   Overcast
10:54 AM 39.6 °F 36.3 °F 23.7 °F 53% 30.23 in 10.0 mi ENE 4.6 mph - N/A   Overcast
11:15 AM 40.5 °F - 24.4 °F 53% 30.23 in 10.0 mi Calm Calm - N/A   Overcast
11:34 AM 40.1 °F 36.9 °F 23.9 °F 52% 30.23 in 10.0 mi NE 4.6 mph - N/A   Overcast
11:54 AM 40.3 °F - 23.7 °F 52% 30.22 in 10.0 mi Calm Calm - N/A   Overcast
12:15 PM 40.5 °F - 23.4 °F 51% 30.22 in 10.0 mi Calm Calm - N/A   Overcast
12:34 PM 40.6 °F - 23.9 °F 51% 30.22 in 10.0 mi Calm Calm - N/A   Overcast
12:55 PM 41.0 °F - 23.9 °F 51% 30.20 in 10.0 mi Calm Calm - N/A   Overcast
1:14 PM 41.0 °F 39.0 °F 24.4 °F 52% 30.20 in 10.0 mi North 3.5 mph - N/A   Overcast
1:35 PM 40.8 °F - 24.3 °F 52% 30.20 in 10.0 mi Calm Calm - N/A   Overcast
1:55 PM 41.5 °F 39.6 °F 22.5 °F 47% 30.19 in 10.0 mi ENE 3.5 mph - N/A   Overcast
2:14 PM 41.4 °F 39.4 °F 23.7 °F 50% 30.19 in 10.0 mi WNW 3.5 mph - N/A   Overcast
2:35 PM 41.5 °F - 23.5 °F 49% 30.19 in 10.0 mi Calm Calm - N/A   Overcast
2:55 PM 41.0 °F 39.0 °F 25.3 °F 54% 30.19 in 10.0 mi NE 3.5 mph - N/A   Overcast
3:14 PM 41.0 °F 39.0 °F 24.6 °F 52% 30.19 in 10.0 mi North 3.5 mph - N/A   Overcast
3:35 PM 41.0 °F - 24.1 °F 51% 30.19 in 10.0 mi Calm Calm - N/A   Overcast
3:54 PM 41.4 °F - 23.5 °F 49% 30.19 in 10.0 mi Calm Calm - N/A   Overcast
4:15 PM 40.8 °F 37.8 °F 28.0 °F 60% 30.19 in 10.0 mi ENE 4.6 mph - N/A   Overcast
4:35 PM 40.3 °F 37.1 °F 28.0 °F 62% 30.18 in 10.0 mi NNE 4.6 mph - N/A   Overcast
4:54 PM 39.6 °F 34.7 °F 28.2 °F 64% 30.18 in 10.0 mi ENE 6.9 mph - N/A   Mostly Cloudy
5:15 PM 39.4 °F 36.1 °F 28.4 °F 65% 30.18 in 10.0 mi NNE 4.6 mph - N/A   Mostly Cloudy
5:34 PM 39.2 °F 35.9 °F 29.1 °F 67% 30.19 in 10.0 mi East 4.6 mph - N/A   Overcast
5:55 PM 38.8 °F - 28.9 °F 68% 30.19 in 10.0 mi Calm Calm - N/A   Overcast
6:14 PM 38.5 °F - 28.9 °F 69% 30.20 in 10.0 mi Calm Calm - N/A   Overcast
6:35 PM 38.5 °F 36.1 °F 28.9 °F 69% 30.20 in 10.0 mi East 3.5 mph - N/A   Overcast
6:54 PM 38.3 °F - 29.1 °F 70% 30.20 in 10.0 mi Calm Calm - N/A   Overcast
7:14 PM 38.1 °F 35.7 °F 29.3 °F 71% 30.20 in 10.0 mi East 3.5 mph - N/A   Overcast
7:35 PM 38.3 °F - 29.3 °F 70% 30.21 in 10.0 mi Calm Calm - N/A   Overcast
7:54 PM 38.3 °F - 29.3 °F 70% 30.20 in 10.0 mi Calm Calm - N/A   Overcast
8:15 PM 38.5 °F - 28.9 °F 69% 30.20 in 10.0 mi Calm Calm - N/A   Overcast
8:35 PM 38.3 °F - 29.1 °F 70% 30.20 in 10.0 mi Calm Calm - N/A   Overcast
8:54 PM 38.3 °F 35.9 °F 29.1 °F 70% 30.20 in 10.0 mi ESE 3.5 mph - N/A   Overcast
9:15 PM 37.9 °F 34.4 °F 28.8 °F 70% 30.20 in 10.0 mi East 4.6 mph - N/A   Overcast
9:34 PM 37.8 °F 35.3 °F 28.4 °F 69% 30.20 in 10.0 mi ESE 3.5 mph - N/A   Overcast
9:55 PM 37.8 °F 34.2 °F 28.2 °F 68% 30.20 in 10.0 mi East 4.6 mph - N/A   Overcast
10:14 PM 37.8 °F 35.3 °F 28.0 °F 68% 30.20 in 10.0 mi East 3.5 mph - N/A   Overcast
10:35 PM 37.8 °F - 27.1 °F 66% 30.20 in 10.0 mi Calm Calm - N/A   Overcast
10:55 PM 37.6 °F 35.1 °F 27.1 °F 66% 30.20 in 10.0 mi ESE 3.5 mph - N/A   Overcast
11:14 PM 37.6 °F - 27.1 °F 66% 30.19 in 10.0 mi Calm Calm - N/A   Overcast
11:35 PM 37.6 °F 35.1 °F 26.8 °F 65% 30.19 in 10.0 mi SE 3.5 mph - N/A   Overcast
11:55 PM 37.4 °F 34.9 °F 25.9 °F 63% 30.18 in 10.0 mi SE 3.5 mph - N/A   Overcast